EW0603 Weather Reports


time (UTC)temp
C
wind
direction
speed
KPH
gust
KPH
rain 1hr
cm
rain 24hr
cm
rain mn
cm
humidity
%
barometer
mb
20260502231044 8 0 3.2 11.3 0.00 0.03 0.03 51 1014.7
20260502230938 8 280 3.2 11.3 0.00 0.03 0.03 50 1014.7
20260502230833 8 281 3.2 11.3 0.00 0.03 0.03 50 1014.7
20260502230505 8 292 3.2 11.3 0.00 0.03 0.03 50 1014.8
20260502230401 8 292 3.2 11.3 0.00 0.03 0.03 49 1014.8
20260502230257 8 273 3.2 11.3 0.00 0.03 0.03 50 1014.9
20260502230155 8 309 3.2 11.3 0.00 0.03 0.03 50 1014.8
20260502230046 8 313 3.2 11.3 0.00 0.03 0.03 49 1014.8
20260502225241 8 287 1.6 9.7 0.00 0.03 0.03 52 1014.8
20260502225134 8 286 3.2 9.7 0.00 0.03 0.03 51 1014.9
20260502225031 8 294 3.2 9.7 0.00 0.03 0.03 50 1014.8
20260502224928 8 292 3.2 9.7 0.00 0.03 0.03 52 1014.8
20260502224821 8 343 3.2 9.7 0.00 0.03 0.03 51 1014.9
20260502224713 8 300 3.2 9.7 0.00 0.03 0.03 51 1014.9
20260502224610 8 300 3.2 9.7 0.00 0.03 0.03 50 1014.9
20260502224508 8 300 3.2 9.7 0.00 0.03 0.03 50 1014.8
20260502224402 8 300 3.2 9.7 0.00 0.03 0.03 50 1014.9
20260502224255 8 300 3.2 9.7 0.00 0.03 0.03 50 1014.9
20260502224148 8 256 3.2 9.7 0.00 0.03 0.03 49 1014.9
20260502224041 8 291 1.6 9.7 0.00 0.03 0.03 50 1014.9
20260502223936 8 292 1.6 9.7 0.00 0.03 0.03 51 1014.9
20260502223829 8 290 1.6 9.7 0.00 0.03 0.03 51 1014.9
20260502223245 8 279 3.2 14.5 0.00 0.03 0.03 50 1014.9
20260502223140 8 295 4.8 14.5 0.00 0.03 0.03 49 1014.9
20260502223038 8 294 4.8 14.5 0.00 0.03 0.03 51 1014.9
20260502222714 8 306 4.8 14.5 0.00 0.03 0.03 49 1014.9
20260502222129 8 298 4.8 14.5 0.00 0.03 0.03 50 1014.9
20260502222021 8 267 4.8 14.5 0.00 0.05 0.03 50 1014.9
20260502221656 8 271 3.2 14.5 0.00 0.05 0.03 49 1014.9
20260502221550 8 276 1.6 14.5 0.00 0.05 0.03 50 1014.9
20260502221443 8 280 1.6 14.5 0.00 0.05 0.03 51 1014.9
20260502221337 8 284 1.6 14.5 0.00 0.05 0.03 52 1014.9
20260502221234 8 280 1.6 14.5 0.00 0.05 0.03 52 1014.9
20260502221129 8 287 1.6 14.5 0.00 0.05 0.03 50 1014.9
20260502221027 8 287 3.2 14.5 0.00 0.05 0.03 52 1014.9
20260502220924 8 296 3.2 14.5 0.00 0.05 0.03 51 1014.9
20260502220822 8 252 3.2 14.5 0.00 0.05 0.03 51 1014.9
20260502220718 8 220 3.2 16.1 0.00 0.05 0.03 52 1014.9
20260502220354 8 286 1.6 16.1 0.00 0.05 0.03 51 1014.9
20260502215811 8 304 3.2 16.1 0.00 0.05 0.03 51 1014.8
20260502215709 8 303 4.8 0.0 0.00 0.05 0.03 50 1014.8
20260502215606 8 303 6.4 16.1 0.00 0.05 0.03 50 1014.8
20260502215504 8 304 6.4 16.1 0.00 0.05 0.03 50 1014.8
20260502215358 8 305 6.4 16.1 0.00 0.05 0.03 49 1014.8
20260502215252 8 292 6.4 16.1 0.00 0.05 0.03 48 1014.8
20260502215145 8 273 6.4 16.1 0.00 0.05 0.03 49 1014.8
20260502215043 8 296 6.4 16.1 0.00 0.05 0.03 50 1014.8
20260502214941 8 280 6.4 16.1 0.00 0.05 0.03 49 1014.8
20260502214835 8 284 4.8 16.1 0.00 0.05 0.03 51 1014.8
20260502214732 8 346 4.8 11.3 0.00 0.05 0.03 50 1014.8
20260502214629 8 298 4.8 11.3 0.00 0.05 0.03 51 1014.8
20260502214301 8 295 3.2 11.3 0.00 0.05 0.03 50 1014.9
20260502214158 8 259 3.2 11.3 0.00 0.05 0.03 48 1014.9
20260502214052 8 292 3.2 11.3 0.00 0.05 0.03 48 1014.9
20260502213948 8 290 3.2 11.3 0.00 0.05 0.03 49 1014.8
20260502213845 8 331 1.6 9.7 0.00 0.05 0.03 51 1014.8
20260502213520 8 269 1.6 14.5 0.00 0.05 0.03 50 1014.9
20260502213154 8 315 3.2 14.5 0.00 0.05 0.03 50 1014.9
20260502213051 8 325 3.2 14.5 0.00 0.05 0.03 49 1014.9
20260502212729 8 334 6.4 19.3 0.00 0.05 0.03 50 1014.9
20260502212622 8 285 6.4 19.3 0.00 0.05 0.03 48 1014.9
20260502212517 8 264 8.0 19.3 0.00 0.05 0.03 48 1014.9
20260502212410 8 256 6.4 19.3 0.00 0.05 0.03 49 1014.9
20260502212305 8 292 8.0 19.3 0.00 0.05 0.03 50 1014.9
20260502212156 8 313 8.0 19.3 0.00 0.05 0.03 48 1015.0
20260502212051 8 290 8.0 19.3 0.00 0.05 0.03 47 1014.9
20260502211945 8 269 8.0 19.3 0.00 0.05 0.03 47 1015.0
20260502211839 8 273 8.0 19.3 0.00 0.05 0.03 47 1015.0
20260502211737 8 283 6.4 19.3 0.00 0.05 0.03 48 1015.0
20260502211630 8 282 6.4 19.3 0.00 0.05 0.03 50 1015.0
20260502211526 8 283 6.4 19.3 0.00 0.05 0.03 50 1015.0
20260502211422 8 267 6.4 19.3 0.00 0.05 0.03 49 1015.0
20260502211316 8 281 6.4 19.3 0.00 0.05 0.03 48 1015.0
20260502211212 8 286 6.4 19.3 0.00 0.05 0.03 48 1015.0
20260502211106 8 263 6.4 19.3 0.00 0.05 0.03 49 1015.0
20260502211000 8 305 6.4 19.3 0.00 0.05 0.03 49 1015.0
20260502210416 8 243 6.4 19.3 0.00 0.05 0.03 50 1015.0
20260502210313 8 317 6.4 19.3 0.00 0.05 0.03 49 1015.1
20260502210210 8 345 6.4 19.3 0.00 0.05 0.03 49 1015.0
20260502210105 8 271 8.0 19.3 0.00 0.05 0.03 48 1015.0
20260502205740 8 290 8.0 19.3 0.00 0.05 0.03 48 1015.1
20260502205637 8 267 6.4 12.9 0.00 0.05 0.03 48 1015.1
20260502205530 8 306 6.4 14.5 0.00 0.05 0.03 48 1015.0
20260502205206 8 294 6.4 14.5 0.00 0.05 0.03 48 1015.0
20260502204839 8 26 6.4 14.5 0.00 0.05 0.03 48 1015.1
20260502204731 8 293 4.8 14.5 0.00 0.05 0.03 48 1015.0
20260502204404 8 315 6.4 19.3 0.00 0.05 0.03 49 1015.1
20260502204035 8 299 6.4 19.3 0.00 0.05 0.03 49 1015.1
20260502203713 8 304 6.4 19.3 0.00 0.05 0.03 49 1015.2
20260502203610 8 337 6.4 19.3 0.00 0.05 0.03 49 1015.2
20260502203504 8 339 6.4 19.3 0.00 0.05 0.03 49 1015.2
20260502203139 8 311 6.4 19.3 0.00 0.05 0.03 47 1015.2
20260502203034 8 292 6.4 19.3 0.00 0.05 0.03 49 1015.2
20260502202928 8 275 6.4 19.3 0.00 0.05 0.03 48 1015.2
20260502202825 8 282 6.4 19.3 0.00 0.05 0.03 49 1015.2
20260502202718 8 283 6.4 19.3 0.00 0.05 0.03 48 1015.3
20260502202614 8 272 6.4 16.1 0.00 0.05 0.03 49 1015.2
20260502202511 8 269 6.4 16.1 0.00 0.05 0.03 50 1015.2
20260502202406 8 278 6.4 16.1 0.00 0.05 0.03 50 1015.3
20260502202259 8 316 8.0 16.1 0.00 0.05 0.03 49 1015.2
20260502201931 8 282 6.4 16.1 0.00 0.05 0.03 48 1015.2
20260502201605 8 288 6.4 16.1 0.00 0.05 0.03 45 1015.3
20260502201503 8 276 4.8 16.1 0.00 0.05 0.03 47 1015.3
20260502201358 8 265 4.8 16.1 0.00 0.05 0.03 46 1015.3
20260502201251 8 344 4.8 16.1 0.00 0.05 0.03 47 1015.3
20260502201147 8 307 4.8 16.1 0.00 0.05 0.03 47 1015.3
20260502201043 8 298 4.8 16.1 0.00 0.05 0.03 49 1015.3
20260502200937 8 340 6.4 16.1 0.00 0.05 0.03 48 1015.4
20260502200835 8 338 6.4 16.1 0.00 0.05 0.03 47 1015.3
20260502200247 8 277 4.8 12.9 0.00 0.05 0.03 48 1015.4
20260502200140 8 317 4.8 12.9 0.00 0.05 0.03 49 1015.4
20260502200032 8 302 3.2 11.3 0.00 0.05 0.03 49 1015.5
20260502195926 8 314 3.2 11.3 0.00 0.05 0.03 47 1015.4
20260502195822 8 16 3.2 11.3 0.00 0.05 0.03 49 1015.4
20260502195720 8 277 3.2 11.3 0.00 0.05 0.03 48 1015.5
20260502195616 8 302 3.2 11.3 0.00 0.05 0.03 48 1015.5
20260502195510 8 304 3.2 9.7 0.00 0.05 0.03 49 1015.4
20260502195407 8 279 3.2 9.7 0.00 0.05 0.03 47 1015.5
20260502195037 8 308 4.8 0.0 0.00 0.05 0.03 46 1015.4
20260502194934 8 308 4.8 14.5 0.00 0.05 0.03 45 1015.5
20260502194831 8 0 4.8 14.5 0.00 0.05 0.03 46 1015.5
20260502194727 8 347 4.8 14.5 0.00 0.05 0.03 46 1015.5
20260502194359 8 269 4.8 14.5 0.00 0.05 0.03 49 1015.5
20260502194254 8 271 4.8 14.5 0.00 0.05 0.03 47 1015.6
20260502194152 8 298 4.8 14.5 0.00 0.05 0.03 48 1015.6
20260502194047 8 281 4.8 14.5 0.00 0.05 0.03 47 1015.5
20260502193943 8 245 4.8 12.9 0.00 0.05 0.03 48 1015.6
20260502193838 8 252 4.8 12.9 0.00 0.05 0.03 51 1015.6
20260502193731 8 264 4.8 12.9 0.00 0.05 0.03 48 1015.6
20260502193627 8 277 4.8 16.1 0.00 0.05 0.03 49 1015.6
20260502193524 8 290 4.8 16.1 0.00 0.05 0.03 48 1015.6
20260502193416 8 290 4.8 16.1 0.00 0.05 0.03 49 1015.6
20260502192835 8 323 4.8 16.1 0.00 0.05 0.03 48 1015.7
20260502192033 8 329 8.0 20.9 0.00 0.05 0.03 45 1015.7
20260502191711 8 308 8.0 20.9 0.00 0.05 0.03 47 1015.8
20260502191606 8 348 8.0 20.9 0.00 0.05 0.03 47 1015.8
20260502191501 8 289 8.0 20.9 0.00 0.05 0.03 47 1015.8
20260502191354 8 267 6.4 20.9 0.00 0.05 0.03 46 1015.8
20260502191247 8 267 6.4 20.9 0.00 0.05 0.03 46 1015.8
20260502191140 8 307 6.4 20.9 0.00 0.05 0.03 45 1015.8
20260502191036 8 309 6.4 20.9 0.00 0.05 0.03 45 1015.8
20260502190930 8 334 8.0 20.9 0.00 0.05 0.03 46 1015.8
20260502190823 8 315 8.0 20.9 0.00 0.05 0.03 48 1015.9
20260502190456 7 298 8.0 19.3 0.00 0.05 0.03 46 1015.9
20260502190352 7 267 8.0 19.3 0.00 0.05 0.03 47 1015.9
20260502190247 7 290 8.0 19.3 0.00 0.05 0.03 47 1015.9
20260502190140 7 281 8.0 19.3 0.00 0.05 0.03 48 1015.9
20260502190033 7 259 6.4 19.3 0.00 0.05 0.03 46 1016.0
20260502185928 7 307 6.4 17.7 0.00 0.05 0.03 47 1016.0
20260502185823 7 273 6.4 17.7 0.00 0.05 0.03 47 1016.0
20260502185721 8 294 6.4 17.7 0.00 0.05 0.03 48 1016.0
20260502185617 8 300 6.4 17.7 0.00 0.05 0.03 48 1016.0
20260502185511 8 267 6.4 17.7 0.00 0.05 0.03 49 1016.0
20260502185406 7 302 6.4 17.7 0.00 0.05 0.03 50 1016.0
20260502185305 7 217 6.4 17.7 0.00 0.05 0.03 49 1016.0
20260502184942 8 272 8.0 17.7 0.00 0.05 0.03 47 1016.0
20260502184837 8 272 8.0 17.7 0.00 0.05 0.03 48 1016.0
20260502184733 8 250 8.0 17.7 0.00 0.05 0.03 48 1016.0
20260502184406 8 275 8.0 17.7 0.00 0.05 0.03 51 1015.9
20260502184301 8 292 9.7 17.7 0.00 0.05 0.03 48 1016.0
20260502184155 8 287 8.0 17.7 0.00 0.05 0.03 48 1016.0
20260502184049 7 319 9.7 17.7 0.00 0.05 0.03 49 1016.0
20260502183944 7 288 9.7 19.3 0.00 0.05 0.03 48 1016.0
20260502183839 7 252 9.7 19.3 0.00 0.05 0.03 48 1016.0
20260502183736 7 282 9.7 19.3 0.00 0.05 0.03 48 1016.0
20260502183629 7 289 9.7 19.3 0.00 0.05 0.03 47 1016.1
20260502183522 7 284 9.7 19.3 0.00 0.05 0.03 46 1016.1
20260502183157 7 296 9.7 19.3 0.00 0.05 0.03 48 1016.1
20260502182944 7 300 8.0 19.3 0.00 0.05 0.03 48 1016.1
20260502182841 7 285 6.4 19.3 0.00 0.05 0.03 48 1016.1
20260502182735 7 277 6.4 19.3 0.00 0.05 0.03 51 1016.1
20260502182407 7 245 6.4 19.3 0.00 0.05 0.03 51 1016.1
20260502182045 7 293 8.0 19.3 0.00 0.05 0.03 49 1016.1
20260502181941 7 284 8.0 22.5 0.00 0.05 0.03 47 1016.1
20260502181617 7 331 9.7 22.5 0.00 0.05 0.03 47 1016.1
20260502181511 7 306 8.0 22.5 0.00 0.05 0.03 48 1016.1
20260502181408 7 275 8.0 22.5 0.00 0.05 0.03 48 1016.1
20260502181305 7 263 8.0 22.5 0.00 0.05 0.03 47 1016.1
20260502181158 7 252 8.0 22.5 0.00 0.05 0.03 48 1016.1
20260502181056 7 293 8.0 22.5 0.00 0.05 0.03 48 1016.2
20260502180950 7 280 8.0 22.5 0.00 0.05 0.03 47 1016.2
20260502180848 7 340 8.0 22.5 0.00 0.05 0.03 48 1016.2
20260502180303 7 266 8.0 22.5 0.00 0.05 0.03 47 1016.2
20260502180159 7 286 6.4 22.5 0.00 0.05 0.03 46 1016.2
20260502170432 7 269 6.4 17.7 0.00 0.05 0.03 51 1016.7
20260502170110 7 294 4.8 17.7 0.00 0.05 0.03 52 1016.6
20260502164254 7 252 4.8 14.5 0.00 0.05 0.03 54 1016.8
20260502164147 7 339 4.8 14.5 0.00 0.05 0.03 55 1016.9
20260502163825 7 329 6.4 14.5 0.00 0.05 0.03 52 1016.8
20260502163719 7 355 4.8 14.5 0.00 0.05 0.03 51 1016.8
20260502163612 7 331 4.8 14.5 0.00 0.05 0.03 54 1016.9
20260502163507 7 0 4.8 14.5 0.00 0.05 0.03 55 1016.9
20260502163142 7 294 4.8 14.5 0.00 0.05 0.03 55 1016.9
20260502163039 7 9 3.2 14.5 0.00 0.05 0.03 54 1016.8
20260502162932 7 315 3.2 14.5 0.00 0.05 0.03 56 1016.8
20260502162825 6 14 3.2 11.3 0.00 0.05 0.03 52 1016.8
20260502162721 6 321 4.8 11.3 0.00 0.05 0.03 52 1016.9
20260502162615 6 306 4.8 11.3 0.00 0.05 0.03 53 1016.9
20260502162514 6 338 4.8 11.3 0.00 0.05 0.03 53 1016.9
20260502162410 6 317 4.8 8.0 0.00 0.05 0.03 52 1016.8
20260502162307 6 348 4.8 6.4 0.00 0.05 0.03 52 1016.8
20260502162202 6 304 6.4 0.0 0.00 0.05 0.03 51 1016.8
20260502162057 6 304 8.0 16.1 0.00 0.05 0.03 51 1016.9
20260502161952 7 306 8.0 16.1 0.00 0.05 0.03 50 1016.8
20260502161848 7 292 6.4 16.1 0.00 0.05 0.03 51 1016.8
20260502161744 7 307 8.0 16.1 0.00 0.05 0.03 54 1016.8
20260502161641 7 262 6.4 16.1 0.00 0.05 0.03 54 1016.8
20260502161539 7 348 6.4 16.1 0.00 0.05 0.03 52 1016.8
20260502161434 7 0 6.4 16.1 0.00 0.05 0.03 54 1016.8
20260502161329 7 269 6.4 16.1 0.00 0.05 0.03 57 1016.9
20260502161008 7 269 4.8 16.1 0.00 0.05 0.03 56 1016.9
20260502160859 6 32 6.4 16.1 0.00 0.05 0.03 55 1016.9
20260502160753 6 320 4.8 16.1 0.00 0.05 0.03 58 1016.9
20260502160427 6 302 6.4 14.5 0.00 0.05 0.03 57 1016.9
20260502160322 6 288 6.4 14.5 0.00 0.05 0.03 53 1017.0
20260502152344 6 329 3.2 14.5 0.00 0.05 0.03 56 1016.8
20260502152238 6 348 3.2 14.5 0.00 0.05 0.03 57 1016.8
20260502151434 6 298 4.8 19.3 0.00 0.05 0.03 55 1016.9
20260502151331 6 327 4.8 19.3 0.00 0.05 0.03 54 1016.8
20260502151226 6 24 4.8 19.3 0.00 0.05 0.03 57 1016.8
20260502151120 6 333 4.8 19.3 0.00 0.05 0.03 59 1016.8
20260502150752 6 9 6.4 19.3 0.00 0.05 0.03 60 1016.7
20260502150647 6 344 6.4 19.3 0.00 0.05 0.03 59 1016.7
20260502150540 6 11 8.0 19.3 0.00 0.05 0.03 57 1016.7
20260502150438 6 263 8.0 19.3 0.00 0.05 0.03 58 1016.7
20260502150331 6 21 8.0 19.3 0.00 0.05 0.03 56 1016.8
20260502150224 6 355 8.0 19.3 0.00 0.05 0.03 58 1016.8
20260502130655 4 309 4.8 11.3 0.00 0.05 0.03 66 1016.8
20260502130328 4 331 3.2 11.3 0.00 0.05 0.03 69 1016.8
20260502130224 4 340 3.2 11.3 0.00 0.05 0.03 67 1016.8
20260502130119 4 311 3.2 11.3 0.00 0.05 0.03 68 1016.8
20260502123815 3 355 1.6 11.3 0.00 0.05 0.03 72 1016.8
20260502123450 3 308 3.2 11.3 0.00 0.05 0.03 71 1016.7
20260502123125 3 350 3.2 9.7 0.00 0.05 0.03 72 1016.8
20260502123021 3 336 3.2 9.7 0.00 0.05 0.03 72 1016.8
20260502122914 3 5 3.2 9.7 0.00 0.05 0.03 71 1016.8
20260502122812 3 5 3.2 9.7 0.00 0.05 0.03 71 1016.8
20260502122708 3 10 3.2 9.7 0.00 0.05 0.03 71 1016.7
20260502122602 3 328 3.2 9.7 0.00 0.05 0.03 72 1016.8
20260502122456 3 297 3.2 9.7 0.00 0.05 0.03 72 1016.7
20260502122352 3 277 3.2 9.7 0.00 0.05 0.03 72 1016.7
20260502122245 3 302 3.2 9.7 0.00 0.05 0.03 72 1016.8
20260502122143 3 259 3.2 9.7 0.00 0.05 0.03 72 1016.8
20260502122038 2 337 3.2 9.7 0.00 0.05 0.03 73 1016.8
20260502121935 2 334 3.2 9.7 0.00 0.05 0.03 72 1016.8
20260502121612 2 315 1.6 8.0 0.00 0.05 0.03 74 1016.7
20260502121509 2 344 1.6 8.0 0.00 0.05 0.03 73 1016.8
20260502121401 2 344 1.6 8.0 0.00 0.05 0.03 73 1016.7
20260502121254 2 11 1.6 8.0 0.00 0.05 0.03 73 1016.7
20260502121149 2 13 1.6 8.0 0.00 0.05 0.03 73 1016.7
20260502121046 2 355 1.6 8.0 0.00 0.05 0.03 74 1016.7
20260502120941 2 355 1.6 8.0 0.00 0.05 0.03 74 1016.7
20260502120837 2 22 1.6 6.4 0.00 0.05 0.03 74 1016.7
20260502120735 2 335 0.0 6.4 0.00 0.05 0.03 75 1016.6
20260502120633 2 324 0.0 6.4 0.00 0.05 0.03 75 1016.7
20260502120531 2 324 0.0 6.4 0.00 0.05 0.03 74 1016.6
20260502120425 2 323 0.0 6.4 0.00 0.05 0.03 75 1016.6
20260502120322 2 340 0.0 3.2 0.00 0.05 0.03 75 1016.6
20260502120219 2 350 0.0 8.0 0.00 0.05 0.03 74 1016.6
20260502120115 2 350 0.0 8.0 0.00 0.05 0.03 75 1016.6
20260502115645 2 348 0.0 6.4 0.00 0.05 0.03 76 1016.5
20260502115542 2 348 0.0 6.4 0.00 0.05 0.03 76 1016.5
20260502115220 2 330 0.0 0.0 0.00 0.03 0.03 77 1016.5
20260502114850 1 344 0.0 6.4 0.00 0.03 0.00 76 1016.5
20260502114746 1 344 0.0 6.4 0.00 0.03 0.00 76 1016.5
20260502114638 1 336 0.0 4.8 0.00 0.03 0.00 76 1016.5
20260502114535 1 322 0.0 4.8 0.00 0.03 0.00 77 1016.5
20260502114432 1 321 0.0 4.8 0.00 0.03 0.00 77 1016.5
20260502114329 1 321 0.0 1.6 0.00 0.03 0.00 77 1016.5
20260502114227 1 342 0.0 0.0 0.00 0.03 0.00 77 1016.5
20260502114125 1 342 0.0 3.2 0.00 0.03 0.00 77 1016.5
20260502114022 1 344 0.0 3.2 0.00 0.03 0.00 78 1016.5
20260502113919 1 344 0.0 0.0 0.00 0.03 0.00 78 1016.5
20260502113813 1 288 0.0 0.0 0.00 0.03 0.00 78 1016.4
20260502113706 1 288 0.0 0.0 0.00 0.03 0.00 78 1016.5
20260502113601 1 288 0.0 0.0 0.00 0.03 0.00 78 1016.4
20260502113456 1 288 0.0 0.0 0.00 0.03 0.00 78 1016.5
20260502113352 1 278 0.0 0.0 0.00 0.03 0.00 79 1016.5
20260502113030 1 277 0.0 0.0 0.00 0.03 0.00 79 1016.4
20260502112926 1 277 0.0 0.0 0.00 0.03 0.00 79 1016.4
20260502112823 1 277 0.0 0.0 0.00 0.03 0.00 79 1016.4
20260502112721 1 277 0.0 0.0 0.00 0.03 0.00 79 1016.4
20260502112615 1 277 0.0 0.0 0.00 0.03 0.00 79 1016.3
20260502112509 1 277 0.0 0.0 0.00 0.03 0.00 79 1016.3
20260502112148 1 277 0.0 0.0 0.00 0.03 0.00 79 1016.3
20260502112044 1 277 0.0 0.0 0.00 0.03 0.00 79 1016.3
20260502111716 0 277 0.0 0.0 0.00 0.03 0.00 80 1016.3
20260502111352 0 277 0.0 0.0 0.00 0.03 0.00 80 1016.3
20260502111244 0 277 0.0 0.0 0.00 0.03 0.00 80 1016.3
20260502111141 0 277 0.0 0.0 0.00 0.03 0.00 80 1016.3
20260502111037 0 277 0.0 0.0 0.00 0.03 0.00 80 1016.2
20260502110930 0 277 0.0 0.0 0.00 0.03 0.00 80 1016.2
20260502110824 0 277 0.0 0.0 0.00 0.03 0.00 80 1016.2
20260502110717 0 277 0.0 0.0 0.00 0.03 0.00 80 1016.2
20260502110613 0 277 0.0 0.0 0.00 0.03 0.00 80 1016.2
20260502110508 0 277 0.0 0.0 0.00 0.03 0.00 80 1016.2
20260502110401 0 277 0.0 0.0 0.00 0.03 0.00 80 1016.1
20260502110300 0 277 0.0 0.0 0.00 0.03 0.00 80 1016.1
20260502110152 0 277 0.0 0.0 0.00 0.03 0.00 80 1016.1
20260502110046 0 277 0.0 0.0 0.00 0.03 0.00 80 1016.1
20260502105944 0 277 0.0 0.0 0.00 0.03 0.00 80 1016.1
20260502105838 0 277 0.0 0.0 0.00 0.03 0.00 80 1016.2
20260502105734 0 277 0.0 0.0 0.00 0.03 0.00 80 1016.1
20260502105627 0 277 0.0 0.0 0.00 0.03 0.00 80 1016.1
20260502105521 0 277 0.0 0.0 0.00 0.03 0.00 80 1016.1
20260502105419 0 277 0.0 0.0 0.00 0.03 0.00 80 1016.1
20260502105316 0 277 0.0 0.0 0.00 0.03 0.00 79 1016.0
20260502105214 0 277 0.0 0.0 0.00 0.03 0.00 79 1016.1
20260502105112 0 277 0.0 0.0 0.00 0.03 0.00 79 1016.1
20260502105009 0 277 0.0 0.0 0.00 0.03 0.00 79 1016.1
20260502104906 0 277 0.0 0.0 0.00 0.03 0.00 79 1016.1
20260502104801 0 277 0.0 0.0 0.00 0.03 0.00 79 1016.1
20260502104659 0 277 0.0 0.0 0.00 0.03 0.00 79 1016.1
20260502104556 0 277 0.0 0.0 0.00 0.03 0.00 79 1016.1
20260502104450 0 277 0.0 0.0 0.00 0.03 0.00 79 1016.1
20260502103908 0 277 0.0 0.0 0.00 0.03 0.00 79 1016.0
20260502103802 0 277 0.0 0.0 0.00 0.03 0.00 79 1016.0
20260502103659 0 277 0.0 0.0 0.00 0.03 0.00 79 1016.0
20260502103553 0 277 0.0 0.0 0.00 0.03 0.00 79 1016.1
20260502103448 0 278 0.0 0.0 0.00 0.03 0.00 79 1016.1
20260502103344 0 278 0.0 0.0 0.00 0.03 0.00 79 1016.0
20260502103238 0 278 0.0 0.0 0.00 0.03 0.00 79 1016.0
20260502103133 0 278 0.0 0.0 0.00 0.03 0.00 79 1016.0
20260502103026 0 278 0.0 0.0 0.00 0.03 0.00 79 1016.0
20260502102921 0 278 0.0 0.0 0.00 0.03 0.00 79 1016.0
20260502102815 0 278 0.0 0.0 0.00 0.03 0.00 79 1016.1
20260502102449 0 278 0.0 0.0 0.00 0.03 0.00 78 1016.0
20260502102344 0 278 0.0 0.0 0.00 0.03 0.00 78 1016.0
20260502102242 0 278 0.0 0.0 0.00 0.03 0.00 78 1016.0
20260502102138 0 278 0.0 0.0 0.00 0.03 0.00 78 1016.0
20260502102033 0 278 0.0 0.0 0.00 0.03 0.00 78 1016.0
20260502101930 0 279 0.0 0.0 0.00 0.03 0.00 78 1016.0
20260502101824 0 278 0.0 0.0 0.00 0.03 0.00 78 1016.0
20260502101722 0 279 0.0 0.0 0.00 0.03 0.00 78 1015.9
20260502101620 0 279 0.0 0.0 0.00 0.03 0.00 78 1015.9
20260502101518 0 279 0.0 0.0 0.00 0.03 0.00 78 1015.9
20260502101412 0 279 0.0 0.0 0.00 0.03 0.00 78 1015.9
20260502101306 0 279 0.0 0.0 0.00 0.03 0.00 78 1016.0
20260502101202 0 281 0.0 0.0 0.00 0.03 0.00 78 1016.0
20260502101056 0 282 0.0 0.0 0.00 0.03 0.00 78 1016.0
20260502100950 0 284 0.0 0.0 0.00 0.03 0.00 78 1016.0
20260502100843 0 284 0.0 0.0 0.00 0.03 0.00 78 1016.0
20260502100737 0 284 0.0 0.0 0.00 0.03 0.00 77 1016.0
20260502100634 0 284 0.0 0.0 0.00 0.03 0.00 77 1016.0
20260502100528 0 284 0.0 0.0 0.00 0.03 0.00 77 1015.9
20260502100422 0 284 0.0 0.0 0.00 0.03 0.00 77 1015.9
20260502100315 0 284 0.0 0.0 0.00 0.03 0.00 77 1015.9
20260502100209 0 284 0.0 0.0 0.00 0.03 0.00 77 1015.9
20260502091431 1 316 0.0 0.0 0.00 0.03 0.00 75 1015.8
20260502091107 1 320 0.0 0.0 0.00 0.03 0.00 75 1015.7
20260502091005 1 320 0.0 0.0 0.00 0.03 0.00 75 1015.7
20260502090642 1 320 0.0 0.0 0.00 0.03 0.00 75 1015.7
20260502090537 1 320 0.0 0.0 0.00 0.03 0.00 75 1015.7
20260502090432 1 321 0.0 0.0 0.00 0.03 0.00 75 1015.7
20260502090327 1 321 0.0 0.0 0.00 0.03 0.00 75 1015.6
20260502090221 1 320 0.0 0.0 0.00 0.03 0.00 75 1015.6
20260502071525 3 322 0.0 0.0 0.00 0.08 0.00 68 1015.2
20260502071420 3 322 0.0 0.0 0.00 0.08 0.00 68 1015.2
20260502071318 3 322 0.0 0.0 0.00 0.08 0.00 68 1015.2
20260502071211 3 322 0.0 0.0 0.00 0.08 0.00 68 1015.2
20260502071108 3 322 0.0 0.0 0.00 0.08 0.00 68 1015.2
20260502071000 3 322 0.0 0.0 0.00 0.08 0.00 68 1015.2
20260502070857 3 322 0.0 0.0 0.00 0.08 0.00 68 1015.2
20260502070752 3 322 0.0 0.0 0.00 0.10 0.00 68 1015.2
20260502070645 3 322 0.0 0.0 0.00 0.10 0.00 68 1015.2
20260502070321 3 329 0.0 0.0 0.00 0.10 0.00 69 1015.2
20260502070213 3 330 0.0 0.0 0.00 0.10 0.00 68 1015.2
20260502070107 3 330 0.0 0.0 0.00 0.10 0.00 68 1015.2
20260502070001 3 330 1.6 0.0 0.00 0.10 0.00 68 1015.1
20260502065855 3 330 1.6 0.0 0.00 0.10 0.00 68 1015.1
20260502065748 3 330 1.6 8.0 0.00 0.10 0.00 68 1015.2
20260502065644 3 330 1.6 8.0 0.00 0.10 0.00 67 1015.2
20260502065538 3 330 1.6 8.0 0.00 0.10 0.00 67 1015.2
20260502065432 3 340 1.6 8.0 0.00 0.10 0.00 67 1015.2
20260502065324 3 342 1.6 8.0 0.00 0.10 0.00 68 1015.2
20260502065219 3 328 1.6 8.0 0.00 0.10 0.00 68 1015.2
20260502065113 3 326 1.6 8.0 0.00 0.10 0.00 69 1015.2
20260502064744 3 326 0.0 8.0 0.00 0.10 0.00 68 1015.3
20260502064426 3 346 0.0 4.8 0.00 0.10 0.00 70 1015.3
20260502064320 3 325 0.0 0.0 0.00 0.10 0.00 70 1015.3
20260502064214 3 324 0.0 0.0 0.00 0.10 0.00 70 1015.3
20260502064108 3 355 0.0 0.0 0.00 0.10 0.00 70 1015.3
20260502064003 3 355 0.0 0.0 0.00 0.10 0.00 71 1015.3
20260502063856 3 325 0.0 0.0 0.00 0.10 0.00 70 1015.4
20260502063753 3 325 0.0 0.0 0.00 0.10 0.00 70 1015.4
20260502063651 3 325 0.0 0.0 0.00 0.10 0.00 70 1015.4
20260502063547 3 325 0.0 0.0 0.00 0.10 0.00 70 1015.4
20260502063444 3 325 0.0 0.0 0.00 0.10 0.00 70 1015.4
20260502063122 3 325 0.0 0.0 0.00 0.10 0.00 70 1015.4
20260502063017 3 325 0.0 0.0 0.00 0.10 0.00 71 1015.3
20260502062911 3 325 0.0 0.0 0.00 0.10 0.00 72 1015.4
20260502062544 3 325 0.0 0.0 0.00 0.10 0.00 71 1015.3
20260502062442 3 325 0.0 0.0 0.00 0.10 0.00 71 1015.4
20260502062337 3 325 0.0 0.0 0.00 0.10 0.00 71 1015.4
20260502062234 3 325 0.0 0.0 0.00 0.10 0.00 70 1015.4
20260502062131 3 325 0.0 0.0 0.00 0.10 0.00 70 1015.4
20260502062027 3 326 0.0 0.0 0.00 0.10 0.00 71 1015.4
20260502061924 3 326 0.0 0.0 0.00 0.10 0.00 71 1015.4
20260502061821 3 326 0.0 0.0 0.00 0.10 0.00 71 1015.4
20260502061715 3 327 0.0 0.0 0.00 0.10 0.00 71 1015.4
20260502061241 3 306 0.0 1.6 0.00 0.10 0.00 72 1015.4
20260502061133 3 306 0.0 1.6 0.00 0.10 0.00 72 1015.4
20260502061026 3 306 0.0 1.6 0.00 0.10 0.00 72 1015.4
20260502060921 3 292 0.0 0.0 0.00 0.10 0.00 73 1015.5
20260502060816 3 293 0.0 0.0 0.00 0.10 0.00 73 1015.4
20260502060713 3 293 0.0 0.0 0.00 0.10 0.00 73 1015.4
20260502060610 3 293 0.0 0.0 0.00 0.10 0.00 73 1015.4
20260502060505 3 293 0.0 1.6 0.00 0.10 0.00 74 1015.5
20260502060401 3 293 0.0 1.6 0.00 0.10 0.00 74 1015.5
20260502060257 3 303 0.0 0.0 0.00 0.10 0.00 74 1015.5
20260502060153 3 303 0.0 0.0 0.00 0.10 0.00 75 1015.5
20260502060047 3 303 0.0 0.0 0.00 0.10 0.00 75 1015.5
20260502055945 3 303 0.0 0.0 0.00 0.10 0.00 74 1015.5
20260502055837 3 303 0.0 0.0 0.00 0.10 0.00 74 1015.5
20260502055735 3 303 0.0 0.0 0.00 0.10 0.00 75 1015.5
20260502055632 3 303 0.0 0.0 0.00 0.13 0.00 75 1015.5
20260502055527 3 303 0.0 0.0 0.00 0.13 0.00 75 1015.5
20260502055425 3 303 0.0 0.0 0.00 0.13 0.00 76 1015.5
20260502055319 3 303 0.0 0.0 0.00 0.13 0.00 76 1015.5
20260502054953 3 302 0.0 0.0 0.00 0.13 0.00 76 1015.6
20260502054850 3 302 0.0 0.0 0.00 0.13 0.00 76 1015.5
20260502054743 3 302 0.0 0.0 0.00 0.13 0.00 76 1015.5
20260502054638 3 302 0.0 0.0 0.00 0.13 0.00 76 1015.6
20260502054532 3 302 0.0 0.0 0.00 0.13 0.00 76 1015.6
20260502054202 3 302 0.0 0.0 0.00 0.13 0.00 77 1015.5
20260502054055 3 302 0.0 0.0 0.00 0.13 0.00 78 1015.5
20260502053732 3 302 0.0 0.0 0.00 0.13 0.00 78 1015.6
20260502053627 3 302 0.0 0.0 0.00 0.13 0.00 78 1015.5
20260502053305 3 302 0.0 0.0 0.00 0.13 0.00 78 1015.5
20260502052939 3 271 0.0 0.0 0.00 0.13 0.00 79 1015.5
20260502052836 3 271 0.0 0.0 0.00 0.13 0.00 79 1015.5
20260502052728 3 271 0.0 0.0 0.00 0.13 0.00 79 1015.5
20260502052625 3 271 0.0 0.0 0.00 0.13 0.00 79 1015.6
20260502052522 3 271 0.0 0.0 0.00 0.13 0.00 79 1015.5
20260502052417 3 271 0.0 0.0 0.00 0.13 0.00 79 1015.5
20260502052315 3 271 0.0 0.0 0.00 0.13 0.00 79 1015.5
20260502052213 3 271 0.0 0.0 0.00 0.13 0.00 79 1015.5
20260502052110 3 271 0.0 0.0 0.00 0.13 0.00 78 1015.5
20260502052002 3 271 0.0 0.0 0.00 0.13 0.00 78 1015.5
20260502051855 3 271 0.0 0.0 0.00 0.13 0.00 78 1015.5
20260502051753 3 271 0.0 0.0 0.00 0.13 0.00 78 1015.6
20260502051646 3 271 0.0 0.0 0.00 0.13 0.00 78 1015.5
20260502051542 3 271 0.0 0.0 0.00 0.13 0.00 78 1015.5
20260502051220 3 271 0.0 0.0 0.00 0.13 0.00 78 1015.4
20260502051115 3 271 0.0 0.0 0.00 0.13 0.00 78 1015.5
20260502051008 3 271 0.0 0.0 0.00 0.13 0.00 78 1015.4
20260502050905 3 271 0.0 0.0 0.00 0.13 0.00 78 1015.5
20260502050758 3 271 0.0 0.0 0.00 0.13 0.00 78 1015.5
20260502050653 3 271 0.0 0.0 0.00 0.13 0.00 78 1015.5
20260502050550 3 271 0.0 0.0 0.00 0.13 0.00 78 1015.5
20260502050445 3 271 0.0 0.0 0.00 0.13 0.00 78 1015.5
20260502050339 3 270 0.0 0.0 0.00 0.13 0.00 79 1015.5
20260502050231 3 270 0.0 0.0 0.00 0.13 0.00 78 1015.5
20260502050128 3 270 0.0 0.0 0.00 0.13 0.00 78 1015.5
20260502045802 3 270 0.0 0.0 0.00 0.13 0.00 78 1015.5
20260502045656 3 270 0.0 0.0 0.00 0.13 0.00 78 1015.5
20260502045554 3 270 0.0 0.0 0.00 0.13 0.00 78 1015.5
20260502045451 3 270 0.0 0.0 0.00 0.13 0.00 78 1015.4
20260502045344 3 270 0.0 3.2 0.00 0.13 0.00 78 1015.5
20260502045240 3 270 0.0 3.2 0.00 0.13 0.00 78 1015.5
20260502045134 3 269 0.0 3.2 0.00 0.13 0.00 79 1015.5
20260502045032 3 269 0.0 1.6 0.00 0.13 0.00 79 1015.4
20260502044928 3 269 0.0 0.0 0.00 0.13 0.00 79 1015.4
20260502044824 3 269 0.0 4.8 0.00 0.13 0.00 79 1015.4
20260502044721 3 269 0.0 4.8 0.00 0.13 0.00 79 1015.4
20260502044616 3 269 0.0 4.8 0.00 0.13 0.00 79 1015.4
20260502044509 3 269 0.0 4.8 0.00 0.13 0.00 79 1015.4
20260502043925 3 257 0.0 4.8 0.00 0.13 0.00 79 1015.4
20260502043600 3 260 1.6 8.0 0.00 0.13 0.00 79 1015.4
20260502043230 3 277 1.6 8.0 0.00 0.13 0.00 80 1015.3
20260502043123 3 287 0.0 0.0 0.00 0.13 0.00 80 1015.3
20260502043016 3 300 1.6 4.8 0.00 0.13 0.00 80 1015.3
20260502042650 3 260 1.6 4.8 0.00 0.15 0.00 81 1015.3
20260502042543 3 266 0.0 4.8 0.00 0.15 0.00 81 1015.3
20260502042436 3 296 0.0 4.8 0.00 0.15 0.00 82 1015.3
20260502042334 3 300 0.0 4.8 0.00 0.15 0.00 82 1015.3
20260502042229 3 300 0.0 4.8 0.00 0.15 0.00 82 1015.3
20260502042125 3 300 0.0 4.8 0.00 0.15 0.00 82 1015.3
20260502042023 3 300 0.0 4.8 0.00 0.15 0.00 81 1015.3
20260502041920 3 300 0.0 4.8 0.00 0.15 0.00 81 1015.3
20260502041815 3 300 0.0 4.8 0.00 0.15 0.00 82 1015.2
20260502041709 3 306 0.0 3.2 0.00 0.15 0.00 82 1015.2
20260502041603 3 306 0.0 3.2 0.00 0.15 0.00 82 1015.2
20260502041233 3 308 0.0 0.0 0.00 0.20 0.00 82 1015.1
20260502041130 3 308 0.0 0.0 0.00 0.20 0.00 82 1015.1
20260502041026 3 308 0.0 0.0 0.00 0.20 0.00 82 1015.1
20260502040924 3 308 0.0 0.0 0.00 0.20 0.00 82 1015.0
20260502040819 3 308 0.0 0.0 0.00 0.20 0.00 82 1015.0
20260502040456 3 308 0.0 0.0 0.00 0.20 0.00 82 1015.0
20260502035912 3 308 0.0 0.0 0.00 0.20 0.20 82 1015.0
20260502035810 3 308 0.0 0.0 0.00 0.20 0.20 82 1015.0
20260502035704 3 308 0.0 0.0 0.00 0.20 0.20 82 1015.0
20260502035340 3 308 0.0 0.0 0.00 0.20 0.20 83 1015.0
20260502035236 3 308 0.0 0.0 0.00 0.20 0.20 83 1015.0
20260502035132 2 308 0.0 0.0 0.00 0.23 0.20 83 1015.0
20260502034809 2 308 0.0 0.0 0.00 0.23 0.20 84 1014.9
20260502034706 2 308 0.0 0.0 0.00 0.23 0.20 84 1014.9
20260502034602 2 308 0.0 0.0 0.00 0.23 0.20 84 1014.9
20260502034456 2 308 0.0 0.0 0.00 0.23 0.20 84 1014.9
20260502034351 2 308 0.0 0.0 0.00 0.23 0.20 84 1014.9
20260502034243 2 308 0.0 0.0 0.00 0.23 0.20 84 1014.9
20260502034141 2 308 0.0 0.0 0.00 0.23 0.20 84 1014.9
20260502034033 2 308 0.0 0.0 0.00 0.23 0.20 84 1014.9
20260502033927 2 308 0.0 0.0 0.00 0.23 0.20 84 1014.9
20260502033824 2 308 0.0 0.0 0.00 0.23 0.20 83 1014.9
20260502033717 2 308 0.0 0.0 0.00 0.23 0.20 83 1014.9
20260502033354 2 308 0.0 0.0 0.00 0.25 0.20 83 1014.9
20260502033033 2 308 0.0 0.0 0.00 0.25 0.20 83 1014.8
20260502032930 2 308 0.0 0.0 0.00 0.25 0.20 82 1014.9
20260502032823 2 308 0.0 0.0 0.00 0.25 0.20 82 1014.9
20260502032719 2 308 0.0 0.0 0.00 0.28 0.20 82 1014.9
20260502032615 2 308 0.0 0.0 0.00 0.28 0.20 82 1014.9
20260502032251 2 308 0.0 0.0 0.00 0.28 0.20 82 1014.9
20260502032149 2 308 0.0 0.0 0.00 0.28 0.20 82 1014.9
20260502032042 2 308 0.0 0.0 0.00 0.28 0.20 82 1014.9
20260502031936 2 308 0.0 0.0 0.00 0.30 0.20 82 1014.9
20260502031609 2 308 0.0 0.0 0.00 0.30 0.20 82 1014.8
20260502031502 2 308 0.0 0.0 0.00 0.30 0.20 82 1014.9
20260502031358 2 308 0.0 0.0 0.00 0.33 0.20 82 1014.9
20260502031251 2 308 0.0 0.0 0.00 0.33 0.20 82 1014.9
20260502031148 2 308 0.0 0.0 0.00 0.33 0.20 82 1014.9
20260502031041 2 308 0.0 0.0 0.00 0.33 0.20 81 1014.9
20260502030935 2 308 0.0 0.0 0.00 0.33 0.20 81 1014.9
20260502030830 2 308 0.0 0.0 0.00 0.36 0.20 81 1014.9
20260502030722 2 308 0.0 0.0 0.00 0.36 0.20 81 1014.9
20260502030617 2 308 0.0 0.0 0.00 0.36 0.20 81 1014.8
20260502030511 2 308 0.0 0.0 0.00 0.36 0.20 81 1014.9
20260502030408 2 308 0.0 0.0 0.00 0.36 0.20 80 1014.9
20260502030305 2 308 0.0 0.0 0.00 0.36 0.20 80 1014.9
20260502030159 2 308 0.0 0.0 0.00 0.36 0.20 80 1014.9
20260502030052 2 308 0.0 0.0 0.00 0.38 0.20 80 1014.8
20260502025947 2 308 0.0 0.0 0.00 0.38 0.20 80 1014.8
20260502025846 2 308 0.0 0.0 0.00 0.38 0.20 79 1014.9
20260502025740 2 308 0.0 0.0 0.00 0.38 0.20 79 1014.9
20260502025635 2 308 0.0 0.0 0.00 0.38 0.20 79 1014.9
20260502025530 2 308 0.0 0.0 0.00 0.38 0.20 79 1014.8
20260502025204 3 308 0.0 0.0 0.00 0.38 0.20 78 1014.9
20260502025058 3 308 0.0 0.0 0.00 0.38 0.20 78 1014.9
20260502024951 3 308 0.0 0.0 0.00 0.38 0.20 78 1014.9
20260502024846 3 308 0.0 0.0 0.00 0.38 0.20 78 1014.8
20260502024738 3 308 0.0 0.0 0.00 0.38 0.20 78 1014.8
20260502024632 3 308 0.0 0.0 0.00 0.38 0.20 78 1014.8
20260502024526 3 308 0.0 0.0 0.00 0.38 0.20 78 1014.8
20260502024421 3 308 0.0 0.0 0.00 0.38 0.20 78 1014.8
20260502024317 3 308 0.0 0.0 0.00 0.38 0.20 78 1014.8
20260502024215 3 308 0.0 0.0 0.00 0.38 0.20 78 1014.9
20260502024112 3 308 0.0 0.0 0.00 0.38 0.20 77 1014.8
20260502024007 3 308 0.0 0.0 0.00 0.38 0.20 77 1014.8
20260502023905 3 308 0.0 0.0 0.00 0.38 0.20 77 1014.8
20260502023803 3 308 0.0 0.0 0.00 0.38 0.20 77 1014.9
20260502023434 3 308 0.0 0.0 0.00 0.38 0.20 76 1014.8
20260502023329 3 308 0.0 0.0 0.00 0.38 0.20 76 1014.8
20260502023222 3 308 0.0 0.0 0.00 0.38 0.20 76 1014.8
20260502023120 3 308 0.0 0.0 0.00 0.38 0.20 76 1014.8
20260502022536 3 308 0.0 0.0 0.00 0.38 0.20 76 1014.8
20260502022429 3 308 0.0 0.0 0.00 0.38 0.20 76 1014.8
20260502022322 3 308 0.0 0.0 0.00 0.38 0.20 75 1014.8
20260502022215 3 308 0.0 0.0 0.00 0.38 0.20 75 1014.8
20260502022111 3 308 0.0 0.0 0.00 0.38 0.20 75 1014.8
20260502022004 3 308 0.0 0.0 0.00 0.38 0.20 75 1014.8
20260502021858 3 308 0.0 0.0 0.00 0.38 0.20 75 1014.8
20260502021536 3 308 0.0 3.2 0.00 0.38 0.20 75 1014.8
20260502021211 3 337 0.0 0.0 0.00 0.38 0.20 76 1014.8
20260502021109 3 338 0.0 0.0 0.00 0.38 0.20 76 1014.7
20260502021007 4 338 0.0 0.0 0.00 0.38 0.20 76 1014.7
20260502020904 4 338 0.0 0.0 0.00 0.38 0.20 76 1014.7
20260502020759 4 338 0.0 0.0 0.00 0.38 0.20 76 1014.6
20260502020656 4 338 0.0 0.0 0.00 0.38 0.20 76 1014.7
20260502020552 4 338 0.0 0.0 0.00 0.38 0.20 76 1014.6
20260502020447 4 338 0.0 0.0 0.00 0.38 0.20 76 1014.6
20260502020340 4 338 0.0 0.0 0.00 0.38 0.20 76 1014.6
20260502020238 4 338 0.0 0.0 0.00 0.38 0.20 76 1014.6
20260502020134 4 338 0.0 0.0 0.00 0.38 0.20 75 1014.6
20260502020030 4 338 0.0 0.0 0.00 0.38 0.20 75 1014.6
20260502015924 5 338 0.0 0.0 0.00 0.38 0.20 74 1014.5
20260502015820 5 338 0.0 0.0 0.00 0.38 0.20 74 1014.5
20260502015716 5 338 0.0 0.0 0.00 0.38 0.20 74 1014.6
20260502015612 5 338 0.0 0.0 0.00 0.38 0.20 74 1014.5
20260502015505 5 338 0.0 0.0 0.00 0.38 0.20 74 1014.4
20260502015400 5 338 0.0 0.0 0.00 0.38 0.20 73 1014.5
20260502015254 5 338 0.0 0.0 0.00 0.38 0.20 73 1014.4
20260502015152 5 338 0.0 0.0 0.00 0.38 0.20 73 1014.5
20260502015045 5 338 0.0 0.0 0.00 0.38 0.20 73 1014.4
20260502014940 5 338 0.0 0.0 0.00 0.38 0.20 72 1014.4
20260502014834 5 338 0.0 0.0 0.00 0.38 0.20 72 1014.4
20260502014730 5 338 0.0 0.0 0.00 0.38 0.20 72 1014.3
20260502014407 5 338 0.0 0.0 0.00 0.38 0.20 71 1014.3
20260502014302 5 338 0.0 0.0 0.00 0.38 0.20 71 1014.3
20260502014159 5 338 0.0 0.0 0.00 0.38 0.20 70 1014.3
20260502014055 5 338 0.0 0.0 0.00 0.38 0.20 70 1014.3
20260502013948 5 338 0.0 0.0 0.00 0.38 0.20 70 1014.2
20260502013627 5 338 0.0 0.0 0.00 0.38 0.20 70 1014.2
20260502013524 5 338 0.0 0.0 0.00 0.38 0.20 70 1014.2
20260502013422 5 338 0.0 0.0 0.00 0.38 0.20 70 1014.2
20260502013055 5 338 0.0 0.0 0.00 0.38 0.20 70 1014.2
20260502012506 6 344 0.0 0.0 0.00 0.38 0.20 70 1014.1
20260502012402 6 344 0.0 0.0 0.00 0.38 0.20 70 1014.1
20260502012259 6 344 0.0 1.6 0.00 0.38 0.20 70 1014.1
20260502012151 6 344 0.0 1.6 0.00 0.38 0.20 70 1014.1
20260502012047 6 344 0.0 1.6 0.00 0.38 0.20 70 1014.2
20260502011942 6 344 0.0 1.6 0.00 0.38 0.20 70 1014.2
20260502011614 6 344 1.6 0.0 0.00 0.38 0.20 70 1014.2
20260502011511 6 344 1.6 8.0 0.00 0.38 0.20 70 1014.1
20260502011408 6 344 1.6 8.0 0.00 0.38 0.20 70 1014.2
20260502011304 6 344 0.0 8.0 0.00 0.38 0.20 69 1014.2
20260502010937 6 338 0.0 8.0 0.00 0.38 0.20 70 1014.2
20260502010834 6 333 0.0 8.0 0.00 0.38 0.20 71 1014.2
20260502010725 6 344 0.0 8.0 0.00 0.38 0.20 71 1014.2
20260502010621 6 349 0.0 8.0 0.00 0.38 0.20 71 1014.2
20260502010517 6 300 0.0 0.0 0.00 0.38 0.20 70 1014.2
20260502010414 6 300 0.0 0.0 0.00 0.38 0.20 70 1014.1
20260502010311 6 302 0.0 0.0 0.00 0.38 0.20 70 1014.2
20260502010206 6 303 0.0 0.0 0.00 0.38 0.20 70 1014.1
20260502005842 6 306 0.0 0.0 0.00 0.38 0.20 70 1014.1
20260502005738 6 306 0.0 0.0 0.00 0.38 0.20 70 1014.0
20260502005416 6 306 0.0 0.0 0.00 0.38 0.20 70 1014.0
20260502005310 6 306 0.0 0.0 0.00 0.38 0.20 70 1014.0
20260502005208 6 306 0.0 0.0 0.00 0.38 0.20 70 1014.0
20260502005102 6 306 0.0 0.0 0.00 0.38 0.20 70 1014.0
20260502005000 6 306 0.0 0.0 0.00 0.38 0.20 70 1014.0
20260502004856 6 306 0.0 0.0 0.00 0.38 0.20 70 1014.0
20260502004754 6 306 0.0 0.0 0.00 0.38 0.20 69 1014.0
20260502004650 6 306 0.0 0.0 0.00 0.38 0.20 69 1013.9
20260502004546 6 305 0.0 0.0 0.00 0.38 0.20 69 1014.0
20260502004439 6 304 0.0 0.0 0.00 0.38 0.20 70 1013.9
20260502004332 6 304 0.0 1.6 0.00 0.38 0.20 70 1014.0
20260502004224 6 304 0.0 1.6 0.00 0.38 0.20 70 1013.9
20260502004117 6 304 0.0 0.0 0.00 0.38 0.20 69 1014.0
20260502004011 6 304 0.0 0.0 0.00 0.38 0.20 69 1014.0
20260502003650 6 293 0.0 0.0 0.00 0.38 0.20 69 1014.0
20260502003543 6 284 0.0 0.0 0.00 0.38 0.20 69 1013.9
20260502003440 6 284 0.0 0.0 0.00 0.38 0.20 69 1014.0
20260502003337 6 284 0.0 0.0 0.00 0.38 0.20 69 1014.0
20260502003234 6 284 0.0 0.0 0.00 0.38 0.20 69 1013.9
20260502003126 6 284 0.0 1.6 0.00 0.38 0.20 69 1013.9
20260502003023 6 284 0.0 1.6 0.00 0.38 0.20 69 1013.9
20260502002917 6 284 0.0 4.8 0.00 0.38 0.20 68 1014.0
20260502002814 6 284 0.0 4.8 0.00 0.38 0.20 69 1013.9
20260502002706 6 306 0.0 0.0 0.00 0.38 0.20 69 1013.9
20260502002601 6 306 0.0 6.4 0.00 0.38 0.20 69 1013.9
20260502002456 6 306 0.0 6.4 0.00 0.38 0.20 68 1013.9
20260502002353 6 300 0.0 6.4 0.00 0.38 0.20 68 1013.9
20260502001808 6 320 0.0 1.6 0.00 0.38 0.20 69 1013.8
20260502001700 6 319 0.0 4.8 0.00 0.38 0.20 69 1013.8
20260502001115 6 336 0.0 4.8 0.00 0.38 0.20 69 1013.8
20260502001013 6 338 0.0 4.8 0.00 0.38 0.20 69 1013.8
20260502000651 6 344 0.0 0.0 0.00 0.38 0.20 69 1013.8
20260502000547 6 344 1.6 0.0 0.00 0.38 0.20 69 1013.8
20260502000446 6 0 1.6 0.0 0.00 0.38 0.20 69 1013.8
20260502000339 6 344 1.6 9.7 0.00 0.38 0.20 69 1013.7
20260502000233 6 344 1.6 9.7 0.00 0.38 0.20 69 1013.8
20260501235904 6 346 3.2 9.7 0.00 0.38 0.20 68 1013.7
20260501235802 6 325 1.6 9.7 0.00 0.38 0.20 69 1013.7
20260501235656 6 349 1.6 9.7 0.00 0.38 0.20 69 1013.7
20260501235552 6 331 1.6 9.7 0.00 0.38 0.20 69 1013.6
20260501235447 6 290 0.0 9.7 0.00 0.38 0.20 70 1013.6
20260501235343 6 284 0.0 9.7 0.00 0.38 0.20 70 1013.6
20260501235240 6 272 0.0 9.7 0.00 0.38 0.20 70 1013.6
20260501235132 6 307 0.0 9.7 0.00 0.38 0.20 70 1013.6
20260501235027 6 338 0.0 9.7 0.00 0.38 0.20 70 1013.6
20260501234925 6 323 0.0 9.7 0.00 0.38 0.20 70 1013.6
20260501234820 6 288 0.0 4.8 0.00 0.38 0.20 71 1013.6
20260501234713 6 280 0.0 0.0 0.00 0.38 0.20 71 1013.6
20260501234611 6 284 0.0 0.0 0.00 0.38 0.20 70 1013.6
20260501234243 6 284 3.2 12.9 0.00 0.38 0.20 70 1013.5
20260501234140 6 284 3.2 12.9 0.00 0.38 0.20 69 1013.6
20260501234036 6 284 3.2 12.9 0.00 0.38 0.20 69 1013.6
20260501233934 6 281 3.2 12.9 0.00 0.38 0.20 69 1013.6
20260501233829 6 284 3.2 12.9 0.00 0.38 0.20 69 1013.6
20260501233722 6 284 4.8 12.9 0.00 0.38 0.20 69 1013.6
20260501233614 6 281 4.8 14.5 0.00 0.38 0.20 69 1013.5
20260501233512 6 294 4.8 14.5 0.00 0.38 0.20 69 1013.5
20260501233407 6 272 4.8 14.5 0.00 0.38 0.20 68 1013.5
20260501233301 6 309 4.8 14.5 0.00 0.38 0.20 69 1013.5
20260501233155 6 268 4.8 14.5 0.00 0.38 0.20 69 1013.5
20260501233048 6 283 4.8 14.5 0.00 0.38 0.20 68 1013.4
20260501232944 6 276 6.4 14.5 0.00 0.38 0.20 68 1013.5
20260501232837 6 306 6.4 14.5 0.00 0.38 0.20 68 1013.5
20260501232735 6 269 6.4 14.5 0.00 0.38 0.20 68 1013.5
20260501232408 6 299 4.8 14.5 0.00 0.38 0.20 69 1013.4
20260501232305 6 279 4.8 14.5 0.00 0.38 0.20 69 1013.4
20260501232157 6 288 4.8 14.5 0.00 0.38 0.20 69 1013.4
20260501232053 6 309 3.2 14.5 0.00 0.38 0.20 69 1013.4
20260501231946 6 290 3.2 14.5 0.00 0.38 0.20 69 1013.4
20260501231843 6 277 3.2 14.5 0.00 0.38 0.20 69 1013.4
20260501231739 6 278 3.2 14.5 0.00 0.38 0.20 70 1013.4
20260501231632 6 296 1.6 8.0 0.00 0.38 0.20 70 1013.4
20260501231530 6 308 1.6 8.0 0.00 0.38 0.20 70 1013.4
20260501231427 6 299 1.6 8.0 0.00 0.38 0.20 70 1013.3
20260501231321 6 282 1.6 6.4 0.00 0.38 0.20 70 1013.4
20260501231218 6 286 3.2 4.8 0.00 0.38 0.20 70 1013.4